This demonstration page uses our WeatherBlox Daily Observations layout. Learn more.

36.17497, -115.13722

Hourly Observations for November 9, 2019

Temp ( °F °C ) Dew Point ( °F °C ) Humidity (%) Winds ( mph kmh ) Pressure ( in mb ) Visibility ( mi km ) Precip ( " mm )
12:53 am 00:53 Clear 55 12.8 16 -8.9 21 21 W 7 11 30.19 1022 10 16.0934 0 0
1:53 am 01:53 Clear 55 12.8 13 -10.6 19 19 WNW 9 15 30.18 1022 10 16.0934 0 0
2:53 am 02:53 Clear 57 13.9 13 -10.6 17 17 NW 7 11 30.17 1022 10 16.0934 0 0
3:53 am 03:53 Clear 54 12.2 13 -10.6 19 19 Calm 30.18 1022 10 16.0934 0 0
4:53 am 04:53 Clear 52 11.1 14 -10 22 22 Calm 30.18 1022 10 16.0934 0 0
5:53 am 05:53 Clear 54 12.2 14 -10 20 20 NW 14 22 30.18 1022 10 16.0934 0 0
6:53 am 06:53 Sunny 53 11.7 15 -9.4 22 22 Calm 30.2 1023 10 16.0934 0 0
7:53 am 07:53 Sunny 58 14.4 16 -8.9 19 19 Calm 30.22 1023 10 16.0934 0 0
8:53 am 08:53 Sunny 67 19.4 16 -8.9 14 14 NNE 3 6 30.22 1023 10 16.0934 0 0
9:53 am 09:53 Sunny 68 20 14 -10 12 12 NNW 5 7 30.21 1023 10 16.0934 0 0
10:53 am 10:53 Sunny 72 22.2 15 -9.4 11 11 Calm 30.17 1022 10 16.0934 0 0
11:53 am 11:53 Sunny 74 23.3 14 -10 10 10 SSE 5 7 30.14 1021 10 16.0934 0 0
12:53 pm 12:53 Sunny 75 23.9 15 -9.4 10 10 SE 5 7 30.1 1019 10 16.0934 0 0
1:53 pm 13:53 Sunny 77 25 13 -10.6 9 9 ESE 5 7 30.08 1019 10 16.0934 0 0
2:53 pm 14:53 Sunny 78 25.6 13 -10.6 8 8 Calm 30.06 1018 10 16.0934 0 0
3:53 pm 15:53 Sunny 77 25 13 -10.6 9 9 Calm 30.06 1018 10 16.0934 0 0
4:53 pm 16:53 Clear 72 22.2 13 -10.6 10 10 Calm 30.06 1018 10 16.0934 0 0
5:53 pm 17:53 Clear 67 19.4 18 -7.8 15 15 WNW 7 11 30.06 1018 10 16.0934 0 0
6:53 pm 18:53 Clear 63 17.2 22 -5.6 21 21 WNW 5 7 30.08 1019 10 16.0934 0 0
7:53 pm 19:53 Clear 59 15 22 -5.6 24 24 WNW 6 9 30.08 1019 10 16.0934 0 0
8:53 pm 20:53 Clear 56 13.3 21 -6.1 26 26 NW 3 6 30.09 1019 10 16.0934 0 0
9:53 pm 21:53 Clear 57 13.9 21 -6.1 25 25 W 5 7 30.09 1019 10 16.0934 0 0
10:53 pm 22:53 Clear 56 13.3 20 -6.7 24 24 W 7 11 30.08 1019 10 16.0934 0 0
11:53 pm 23:53 Clear 56 13.3 18 -7.8 22 22 W 8 13 30.07 1018 10 16.0934 0 0

Powered by AerisWeather